STARLINK-1731 (46676 NORAD) Tracking and Keplerian Element Data

This shows tracking and keplerian element data for the satellite.

Feedback or suggestion? Click here.




ElementValue
Catalog46676
NameSTARLINK-1731
Epoch Orbit182
Epoch Day20.91667824
Epoch Year2021
RAAN6.5892
Inclination53.0551
Eccentricity0.0006706
Argument of Perigee281.6954
Mean Anonmoly38.6737
Mean Motion15.57588943
Decay Rate0.00041508
L11 46676U 20073G 21020.91667824 .00041508 00000-0 55573-3 0 9995
L22 46676 53.0551 6.5892 0006706 281.6954 38.6737 15.57588943 1824

Live tracking and technical data element details for STARLINK-1731 (NORAD 46676). STARLINK-1731 can be tracked NOW for your location showing map with azimuth and elevation plus other details from your city location.

Track the satellite on the map from your city or location and see movement details for azimuth, elevation, latitude, longitude, range, height, and movement on the map or in text.







IsCatalogInMostPopularTable: catalog: 46676, numindb: 28
Update: records affected: 1



GetName: 46676 STARLINK-1731

Hit Count: updated at: Fri, 22 Jan 2021 15:54:05 GMT